Date String (YYYY-MM-DD hh:mm:ss) UTC,Instrument flags,Ambient pressure (hPa),Sample flow (lpm),Bypass flow (lpm),Sample temperature (°C),Ambient temperature (°C),ASC tube jacket temperature (°C),LED temperature (°C),Box temperature (°C),Sample RH (%),Span deviation,Mass concentration (μg/m³),Mass concentration (μg/m³),Mass concentration (μg/m³)
DateTimeUTC,F1_M11,P_M11,Q1_M11,Q2_M11,T1_M11,T2_M11,T3_M11,T4_M11,T5_M11,U1_M11,ZSPAN_M11,X2_M11,X0_M11,X1_M11
2021-10-05 11:00:00,,0831.7,5.00,0.00,30.0,28.9,00.0,39.1,31.7,11.2,0000.0,0003.76,0008.91,0003.27
2021-10-05 11:01:00,,0831.6,5.00,0.00,30.0,28.9,00.0,39.1,31.7,11.1,0000.0,0003.77,0008.74,0003.27
2021-10-05 11:02:00,,0831.7,4.99,0.00,30.0,28.9,00.0,39.1,31.6,11.0,0000.6,0003.80,0009.50,0003.28
2021-10-05 11:03:00,,0831.7,4.99,0.00,30.0,28.9,00.0,39.1,31.6,11.0,0000.0,0003.86,0010.02,0003.29
2021-10-05 11:04:00,,0831.7,5.01,0.00,30.0,28.9,00.0,39.1,31.6,11.0,0000.0,0003.88,0010.25,0003.28
2021-10-05 11:05:00,,0831.7,5.01,0.00,30.0,28.9,00.0,39.1,31.6,11.0,0001.0,0003.87,0010.09,0003.28
2021-10-05 11:06:00,,0831.7,4.99,0.00,29.9,28.9,00.0,39.1,31.6,10.9,0000.0,0003.89,0010.18,0003.29
2021-10-05 11:07:00,,0831.8,5.00,0.00,29.9,28.8,00.0,39.1,31.6,10.9,0000.0,0003.88,0010.23,0003.29
2021-10-05 11:08:00,,0831.8,5.00,0.00,29.9,28.8,00.0,39.1,31.6,10.9,0000.9,0003.88,0010.22,0003.29
2021-10-05 11:09:00,,0831.7,5.00,0.00,29.9,28.8,00.0,39.1,31.6,10.9,0002.7,0003.85,0009.45,0003.30
2021-10-05 11:10:00,,0831.7,5.00,0.00,29.9,28.8,00.0,39.1,31.6,10.9,0003.0,0003.87,0009.38,0003.30
2021-10-05 11:11:00,,0831.7,5.00,0.00,29.9,28.9,00.0,39.1,31.6,10.9,0003.1,0003.88,0009.02,0003.31
2021-10-05 11:12:00,,0831.7,5.00,0.00,29.9,28.8,00.0,39.1,31.6,10.9,0003.2,0003.88,0008.95,0003.30
2021-10-05 11:13:00,,0831.7,5.00,0.00,29.9,28.9,00.0,39.1,31.7,10.9,0003.1,0003.87,0008.16,0003.30
2021-10-05 11:14:00,,0831.7,4.99,0.00,29.9,28.9,00.0,39.1,31.6,10.9,0003.2,0003.85,0007.83,0003.30
2021-10-05 11:15:00,,0831.7,5.00,0.00,29.9,28.9,00.0,39.1,31.7,10.9,0002.6,0003.87,0007.72,0003.30
2021-10-05 11:16:00,,0831.7,5.00,0.00,29.9,28.9,00.0,39.1,31.7,11.1,0000.6,0003.90,0007.59,0003.30
2021-10-05 11:17:00,,0831.7,5.00,0.00,29.9,29.0,00.0,39.1,31.7,11.1,0000.0,0003.93,0008.02,0003.30
2021-10-05 11:18:00,,0831.7,4.99,0.00,30.0,29.0,00.0,39.1,31.7,11.1,0000.6,0003.96,0008.78,0003.30
2021-10-05 11:19:00,,0831.7,5.00,0.00,30.0,29.0,00.0,39.1,31.7,11.1,0000.6,0003.95,0008.70,0003.30
2021-10-05 11:20:00,,0831.7,5.00,0.00,29.9,29.0,00.0,39.1,31.7,11.1,0000.0,0003.94,0008.68,0003.29
2021-10-05 11:21:00,,0831.7,4.99,0.00,29.9,29.0,00.0,39.1,31.7,11.1,0000.0,0003.93,0008.66,0003.28
2021-10-05 11:22:00,,0831.7,4.99,0.00,29.9,29.0,00.0,39.1,31.7,11.1,0000.0,0003.93,0008.68,0003.27
2021-10-05 11:23:00,,0831.7,5.00,0.00,29.9,29.0,00.0,39.1,31.7,11.1,0000.0,0003.94,0008.64,0003.28
2021-10-05 11:24:00,,0831.7,5.01,0.00,29.9,29.0,00.0,39.1,31.7,11.1,0000.0,0003.92,0009.50,0003.27
2021-10-05 11:25:00,,0831.7,5.00,0.00,29.9,29.0,00.0,39.1,31.7,11.1,0000.0,0003.93,0010.83,0003.27
2021-10-05 11:26:00,,0831.7,5.02,0.00,30.0,29.0,00.0,39.1,31.7,11.1,0000.0,0003.91,0011.13,0003.27
2021-10-05 11:27:00,,0831.7,4.98,0.00,30.0,29.0,00.0,39.1,31.7,11.1,0000.0,0003.87,0011.01,0003.27
2021-10-05 11:28:00,,0831.7,5.02,0.00,30.0,29.0,00.0,39.1,31.7,11.1,0000.0,0003.86,0011.31,0003.27
2021-10-05 11:29:00,,0831.7,5.00,0.00,30.0,29.1,00.0,39.1,31.7,11.1,0000.0,0003.84,0010.94,0003.27
2021-10-05 11:30:00,,0831.7,5.00,0.00,30.0,29.1,00.0,39.1,31.8,11.1,0000.0,0003.86,0010.88,0003.27
2021-10-05 11:31:00,,0831.7,4.99,0.00,30.0,29.1,00.0,39.1,31.8,11.1,0000.0,0003.85,0010.93,0003.27
2021-10-05 11:32:00,,0831.7,5.01,0.00,30.0,29.1,00.0,39.1,31.7,11.1,0000.0,0003.88,0011.41,0003.28
2021-10-05 11:33:00,,0831.8,5.01,0.00,30.0,29.1,00.0,39.1,31.7,11.1,0000.0,0003.88,0011.99,0003.30
2021-10-05 11:34:00,,0831.8,5.01,0.00,30.0,29.1,00.0,39.1,31.8,11.1,0000.0,0003.89,0012.55,0003.32
2021-10-05 11:35:00,,0831.8,4.99,0.00,30.0,29.1,00.0,39.1,31.7,11.3,0000.0,0003.92,0012.09,0003.33
2021-10-05 11:36:00,,0831.9,4.99,0.00,30.0,29.1,00.0,39.1,31.7,11.3,0000.0,0003.97,0010.96,0003.36
2021-10-05 11:37:00,,0831.8,5.00,0.00,30.0,29.1,00.0,39.1,31.7,11.3,0000.0,0003.96,0010.95,0003.36
2021-10-05 11:38:00,,0831.9,5.01,0.00,30.0,29.1,00.0,39.1,31.7,11.3,0000.0,0004.02,0011.33,0003.38
2021-10-05 11:39:00,,0831.8,5.00,0.00,30.0,29.1,00.0,39.1,31.7,11.4,0000.0,0004.01,0010.60,0003.40
2021-10-05 11:40:00,,0831.9,5.00,0.00,30.0,29.1,00.0,39.1,31.7,11.5,0000.0,0004.03,0010.11,0003.42
2021-10-05 11:41:00,,0832.0,5.00,0.00,30.0,29.1,00.0,39.1,31.7,11.5,0000.0,0004.06,0010.43,0003.42
2021-10-05 11:42:00,,0832.0,5.00,0.00,30.0,29.1,00.0,39.1,31.7,11.4,0000.0,0004.14,0011.06,0003.44
2021-10-05 11:43:00,,0832.0,5.01,0.00,30.0,29.1,00.0,39.1,31.8,11.4,-000.5,0004.17,0010.81,0003.46
2021-10-05 11:44:00,,0832.0,5.00,0.00,30.0,29.1,00.0,39.2,31.7,11.5,-001.1,0004.21,0010.30,0003.47
2021-10-05 11:45:00,,0831.9,5.01,0.00,30.0,29.1,00.0,39.2,31.8,11.5,-000.6,0004.21,0009.83,0003.47
2021-10-05 11:46:00,,0832.0,5.01,0.00,30.0,29.1,00.0,39.2,31.7,11.5,-001.0,0004.26,0009.84,0003.48
2021-10-05 11:47:00,,0831.9,5.00,0.00,30.0,29.1,00.0,39.2,31.8,11.5,0000.0,0004.26,0010.08,0003.48
2021-10-05 11:48:00,,0832.0,5.00,0.00,30.0,29.2,00.0,39.2,31.7,11.5,0000.0,0004.32,0009.90,0003.49
2021-10-05 11:49:00,,0832.1,5.00,0.00,30.0,29.2,00.0,39.2,31.8,11.5,0000.0,0004.33,0009.59,0003.51
2021-10-05 11:50:00,,0832.1,4.99,0.00,30.0,29.2,00.0,39.2,31.8,11.5,0000.5,0004.35,0009.56,0003.52
2021-10-05 11:51:00,,0832.1,4.99,0.00,30.1,29.1,00.0,39.2,31.8,11.4,0000.0,0004.37,0009.61,0003.52
2021-10-05 11:52:00,,0832.1,5.00,0.00,30.1,29.2,00.0,39.2,31.8,11.4,0000.0,0004.36,0009.45,0003.53
2021-10-05 11:53:00,,0832.1,4.98,0.00,30.1,29.2,00.0,39.2,31.8,11.3,0000.0,0004.35,0009.16,0003.54
2021-10-05 11:54:00,,0832.1,5.00,0.00,30.1,29.1,00.0,39.2,31.8,11.3,0000.0,0004.35,0009.12,0003.55
2021-10-05 11:55:00,,0832.1,5.01,0.00,30.1,29.1,00.0,39.2,31.8,11.4,0000.0,0004.38,0009.22,0003.56
2021-10-05 11:56:00,,0832.0,5.00,0.00,30.0,29.1,00.0,39.2,31.8,11.4,0000.0,0004.44,0009.93,0003.57
2021-10-05 11:57:00,,0832.1,4.99,0.00,30.1,29.1,00.0,39.2,31.8,11.4,0000.0,0004.43,0010.06,0003.58
2021-10-05 11:58:00,,0832.1,4.99,0.00,30.1,29.1,00.0,39.2,31.8,11.3,0000.0,0004.43,0009.96,0003.59
2021-10-05 11:59:00,,0832.1,5.00,0.00,30.1,29.1,00.0,39.2,31.8,11.3,0000.0,0004.43,0010.17,0003.60
